Location: Siena
(43.3170°N, 11.3500°E)
Time: 09:48:18
(UTC+02:00)

ISS - Visible Passes

Search period start: 08 May 2021 00:00
Search period end: 18 May 2021 00:00
Orbit: 418 x 421 km, 51.6° (Epoch: 08 May)

Date Brightness Start Highest point End Pass type
(mag) Time Alt. Az. Time Alt. Az. Time Alt. Az.
08 May -1.7 02:49:24 27° N 02:49:24 27° N 02:51:58 10° NE visible
08 May -1.2 04:24:00 10° NW 04:26:33 19° N 04:29:07 10° NE visible
09 May -1.0 02:03:27 18° NE 02:03:27 18° NE 02:04:36 10° NE visible
09 May -1.2 03:36:23 10° NW 03:38:55 19° N 03:41:28 10° NE visible
09 May -1.6 05:13:30 10° NW 05:16:30 28° NNE 05:19:29 10° E visible
10 May -1.3 02:50:22 19° NNW 02:51:17 21° N 02:53:55 10° NE visible
10 May -1.3 04:26:06 10° NW 04:28:54 23° NNE 04:31:42 10° ENE visible
11 May -1.2 02:04:21 22° N 02:04:21 22° N 02:06:27 10° NE visible
11 May -1.1 03:38:38 10° NW 03:41:17 21° N 03:43:56 10° ENE visible
11 May -2.8 05:15:19 10° NW 05:18:38 52° NNE 05:21:57 10° ESE visible
12 May -0.8 01:18:16 15° NE 01:18:16 15° NE 01:19:03 10° NE visible
12 May -1.0 02:51:12 11° NW 02:53:39 19° N 02:56:12 10° NE visible
12 May -2.1 04:27:57 10° NW 04:31:08 36° NNE 04:34:17 10° E visible
13 May -1.1 02:05:02 17° NNW 02:06:00 19° N 02:08:33 10° NE visible
13 May -1.6 03:40:35 10° NW 03:43:34 28° NNE 03:46:33 10° E visible
13 May -3.8 05:17:14 10° WNW 05:20:35 63° SW 05:23:55 10° SE visible
14 May -1.1 01:18:38 20° N 01:18:38 20° N 01:21:00 10° NE visible
14 May -1.3 02:53:10 10° NW 02:55:59 23° NNE 02:58:46 10° ENE visible
14 May -3.7 04:29:47 10° NW 04:33:10 80° NNE 04:36:34 10° ESE visible
14 May -2.0 21:15:11 10° SSE 21:17:06 15° SE 21:19:02 10° E visible
14 May -3.7 22:50:09 10° WSW 22:53:31 77° NNW 22:55:40 21° NE visible
15 May -1.3 00:27:57 10° WNW 00:30:43 23° NNW 00:33:31 10° NE visible
15 May -1.1 02:05:42 10° NW 02:08:21 21° N 02:11:00 10° ENE visible
15 May -2.9 03:42:24 10° NW 03:45:42 52° NNE 03:49:01 10° ESE visible
15 May -3.9 22:02:46 10° SW 22:06:06 66° SE 22:09:26 10° ENE visible
15 May -1.6 23:40:10 10° W 23:43:08 28° NNW 23:46:06 10° NE visible
16 May -1.0 01:18:10 10° NW 01:20:42 19° N 01:23:15 10° NE visible
16 May -2.2 02:55:01 10° NW 02:58:11 37° NNE 03:01:21 10° E visible
16 May -3.3 04:31:51 10° WNW 04:35:01 37° SW 04:38:09 10° SSE visible
16 May -3.3 21:15:35 10° SSW 21:18:44 39° SE 21:21:54 10° ENE visible
16 May -2.1 22:52:25 10° W 22:55:34 36° NNW 22:58:43 10° NE visible
17 May -1.0 00:30:31 10° NW 00:33:03 19° N 00:35:36 10° NE visible
17 May -1.7 02:07:38 10° NW 02:10:37 28° NNE 02:13:37 10° E visible
17 May -3.9 03:44:18 10° WNW 03:47:39 63° SW 03:50:59 10° SE visible
17 May -2.8 22:04:45 10° WSW 22:08:02 50° NNW 22:11:20 10° NE visible
17 May -1.1 23:42:47 10° WNW 23:45:25 21° N 23:48:03 10° NE visible
